User: anonymous   Login
Location: Houston
(29.7631°N, 95.3631°W)
Time: 07:58:31
(UTC-06:00)
Language:

DX 1 - Orbit

View from above orbital plane
View from above orbital plane
View from above satellite
View from above satellite

Ground track
Ground track

The orbit data is extracted from the following two-line orbital elements,

1 40071U 14037C   19321.87869468  .00000099  00000-0  20161-4 0  9991
2 40071  98.4431 123.7126 0009604  96.4778 263.7531 14.81308952289787
Epoch (UTC): 17 November 2019 21:05:19
Eccentricity: 0.0009604
inclination: 98.4431°
perigee height: 618 km
apogee height: 632 km
right ascension of ascending node: 123.7126°
argument of perigee: 96.4778°
revolutions per day: 14.81308952
mean anomaly at epoch: 263.7531°
orbit number at epoch: 28978

The dashed part of the orbit path shows where the satellite is in the earth's shadow,  

DLR